Theta_e
314 314 315 315 316 316 316 318 320 323 326 330 331 331 331 331 331 333 334 334 332 332 333 332 332 333 332 333 334 335 337 336 335 334 334 334 334 334 335 335 333 333 333 333 333 334 333 332 333 334 336 333 329 329 331 334 335 333 332 331 331 330 330 328 323 321 326 331 328 325 327 326 322 323 320 322 324 320 318 322 326 324 319 319 325
313 313 314 314 315 315 315 316 318 320 322 326 329 330 331 331 331 332 331 331 332 331 333 334 333 332 332 331 333 334 334 335 334 334 333 333 333 334 335 334 333 332 332 332 333 333 334 333 332 334 335 333 330 331 332 334 332 331 330 331 329 331 332 329 328 323 322 325 327 327 326 326 319 322 321 322 323 320 316 320 322 320 316 318 321
313 313 313 313 314 315 315 315 315 318 320 324 326 327 329 330 331 331 330 331 331 332 332 333 332 332 329 329 331 329 333 334 335 335 334 334 333 333 335 335 334 332 331 332 331 332 333 333 333 334 336 335 334 333 335 333 331 327 329 330 329 330 331 330 327 325 324 322 325 325 326 323 320 320 321 324 324 320 316 317 319 317 316 318 319
312 312 312 312 314 314 314 313 314 314 317 320 323 326 328 330 330 331 329 330 330 329 330 332 333 334 333 333 332 332 334 334 334 334 334 334 333 333 333 334 334 333 333 332 331 331 332 333 333 334 335 333 333 333 333 331 331 331 330 329 331 331 332 332 330 327 323 320 322 322 322 321 320 322 320 322 323 321 318 317 317 316 315 316 316
311 312 312 312 313 313 313 312 312 312 313 316 319 324 328 329 330 328 328 327 328 329 328 330 330 333 331 327 327 330 334 334 334 334 334 335 334 334 333 333 334 333 333 333 332 332 332 332 333 333 334 332 334 332 332 332 331 332 332 329 329 331 330 328 328 328 325 321 320 321 321 321 319 321 320 319 321 320 318 317 316 315 316 315 314
311 312 312 311 311 311 312 312 311 312 312 314 316 320 326 330 331 328 327 327 326 329 327 329 329 329 328 329 329 330 334 335 334 334 334 334 334 334 334 334 333 333 333 333 333 333 333 333 333 333 333 332 333 334 333 332 331 331 330 328 328 330 329 329 327 325 324 322 320 317 321 316 317 319 320 319 317 315 316 316 316 316 316 316 315
311 312 312 311 310 310 311 311 311 311 311 312 315 319 324 329 329 326 326 326 326 328 329 328 330 330 331 331 331 333 334 335 335 335 335 334 333 332 333 333 333 334 334 333 334 334 334 334 334 334 333 333 333 333 333 333 332 332 331 332 331 327 328 326 324 324 325 322 320 319 319 319 320 317 317 318 318 317 316 315 314 315 316 317 316
311 311 311 311 310 310 310 311 312 311 311 311 313 315 320 325 327 326 326 324 327 327 328 328 330 331 330 330 327 330 332 333 335 335 334 334 334 334 334 334 332 333 335 335 335 335 335 335 334 334 334 334 334 333 333 332 333 333 333 334 332 330 326 326 325 321 322 321 320 319 317 316 317 318 316 317 316 316 316 315 313 314 315 317 318
310 311 311 310 310 310 310 311 311 311 310 310 310 311 314 319 324 326 326 326 327 328 327 329 328 328 331 330 328 328 327 330 334 335 334 332 332 331 334 333 333 332 331 332 333 333 334 334 333 333 334 332 324 322 324 326 334 332 334 332 331 330 325 325 318 321 322 320 319 320 317 317 317 317 316 315 314 314 317 317 316 315 314 315 316
309 309 309 309 310 310 310 310 310 311 310 309 309 309 310 312 314 318 325 327 325 327 327 326 327 327 330 330 329 330 331 332 328 318 320 332 332 332 332 333 332 332 331 331 331 331 332 333 333 329 325 323 318 314 311 314 319 329 336 332 328 328 328 324 322 322 320 319 319 318 317 316 316 318 318 318 317 317 316 317 315 314 315 315 318
309 309 308 309 310 310 309 309 310 309 309 309 309 308 308 309 310 310 311 314 318 324 327 325 326 327 330 330 330 330 332 332 309 308 309 311 328 334 333 331 333 332 331 330 329 330 332 332 333 328 326 322 324 307 308 306 307 308 307 306 310 328 327 324 322 321 319 320 322 321 318 317 317 319 319 318 320 319 317 319 316 315 313 313 312
308 308 308 309 309 309 309 309 309 309 309 308 308 307 307 306 306 307 308 309 311 313 314 316 319 322 327 327 328 328 330 298 300 303 304 304 309 333 334 333 332 331 331 330 330 330 331 332 333 333 331 331 331 327 316 306 305 304 298 298 296 294 299 322 326 323 325 321 320 322 321 319 318 319 318 319 320 321 320 320 318 314 314 313 312
308 308 308 308 308 308 308 308 308 308 308 307 307 307 306 305 305 305 305 306 308 308 309 311 312 315 317 320 323 325 321 294 293 293 296 297 298 309 332 333 332 332 333 332 332 331 331 331 333 334 331 325 328 330 329 321 299 295 296 297 296 295 295 296 301 328 329 327 324 323 323 321 319 320 322 321 324 323 322 318 319 317 316 314 314
307 307 307 307 307 307 308 307 307 308 308 307 307 306 305 304 304 305 305 305 305 305 306 307 308 309 311 313 318 321 315 296 293 292 293 293 295 299 329 332 332 332 333 333 333 333 332 331 331 331 332 330 330 331 330 328 323 319 321 325 321 308 298 298 299 296 309 328 331 327 328 326 324 326 326 327 325 322 321 319 321 320 318 316 325
305 306 306 306 307 307 307 307 307 307 307 307 307 306 305 304 303 304 304 303 304 304 303 304 305 306 306 306 310 316 310 293 292 292 293 292 293 295 323 330 331 332 333 334 334 334 333 333 333 331 331 329 330 328 330 327 326 326 325 323 320 319 320 320 322 323 324 325 326 325 322 323 325 325 325 324 324 324 324 322 322 322 324 325 324
304 305 305 305 306 306 306 306 306 306 306 306 306 305 305 304 303 303 303 303 304 304 304 304 304 304 304 304 305 306 307 294 292 292 292 293 292 308 321 328 329 330 330 333 333 334 333 333 333 332 331 330 316 308 316 328 327 324 320 317 314 311 307 297 294 299 317 321 319 318 313 306 303 315 313 322 327 327 324 326 325 324 320 316 316
303 304 304 305 305 305 306 306 305 306 306 306 305 305 304 304 303 303 302 302 301 302 302 303 303 303 302 301 301 303 303 297 292 291 291 292 295 313 320 326 327 328 329 329 329 332 333 332 333 332 331 331 307 301 303 310 324 320 316 314 312 311 308 305 295 293 292 292 292 292 293 293 294 294 294 294 307 318 321 318 317 318 316 314 317
303 303 303 304 305 305 305 305 305 305 305 305 304 305 305 305 304 304 303 302 301 300 301 301 302 303 302 301 300 301 301 297 292 291 292 291 296 312 320 325 325 326 326 327 328 328 317 303 312 330 330 325 296 297 298 313 322 319 317 314 312 310 308 307 306 301 294 294 294 294 294 295 296 296 295 297 298 308 322 317 320 319 320 319 315
302 302 303 304 305 305 305 305 304 304 304 304 304 304 305 305 305 305 304 304 303 302 301 300 300 301 301 301 300 300 300 299 293 291 291 292 300 310 316 322 323 323 323 322 323 321 317 308 297 302 322 308 294 296 297 308 323 319 316 314 311 309 308 309 308 307 308 309 310 309 307 304 308 307 304 298 299 305 313 313 313 312 309 309 310
303 304 304 304 305 305 305 305 304 303 303 304 304 304 305 305 305 305 304 304 303 303 302 302 300 299 300 300 301 300 299 299 296 290 291 292 293 305 310 314 317 317 318 318 318 316 313 310 301 292 292 293 294 294 293 292 317 319 318 315 312 309 311 313 313 313 311 310 309 309 308 307 307 307 307 306 305 304 304 308 310 311 308 307 308
303 303 303 303 304 304 305 305 304 304 304 304 304 304 304 304 304 304 304 304 303 303 302 302 301 301 301 300 299 299 298 298 297 291 291 292 292 298 305 304 307 309 309 310 313 312 308 304 299 292 291 291 291 291 292 292 302 320 319 317 315 312 308 310 307 302 309 307 307 306 306 305 304 303 303 303 303 304 303 304 305 306 306 305 304
303 302 303 303 303 304 305 305 305 304 304 304 304 302 303 303 303 303 303 303 303 303 303 302 301 301 301 301 300 299 299 296 296 294 290 291 291 293 301 301 302 303 300 299 299 301 301 301 299 293 290 291 291 292 292 295 297 311 306 296 295 297 310 310 311 310 309 308 307 306 305 303 301 300 302 303 304 303 305 304 304 305 305 305 306
302 302 302 302 303 304 304 305 304 304 303 304 303 302 303 303 303 302 302 302 302 301 302 302 301 300 300 300 300 300 299 298 293 294 291 290 290 291 292 295 294 301 299 297 297 297 299 298 295 291 290 290 291 291 293 294 297 300 292 293 294 295 301 310 309 310 308 308 307 306 304 304 303 302 302 302 303 304 304 304 305 305 305 304 305
302 302 301 301 302 303 303 304 305 305 304 303 302 302 302 302 301 301 301 301 299 299 299 299 299 299 299 299 299 299 299 299 296 293 293 290 290 290 290 290 292 296 296 295 295 295 295 294 292 290 290 290 290 290 290 292 295 291 292 293 295 298 306 306 305 305 304 302 303 302 302 302 302 301 301 302 302 303 305 306 307 307 306 306 305
301 301 301 301 302 302 303 303 303 304 304 303 302 302 302 302 300 301 301 300 299 298 298 298 297 297 297 297 298 299 299 298 299 296 293 292 291 290 290 290 290 291 293 293 293 293 290 289 290 290 291 291 291 291 291 291 290 290 291 293 298 304 304 304 303 303 300 298 297 298 297 298 299 300 302 302 303 304 304 304 305 304 305 305 305
301 300 300 301 301 301 301 302 303 303 303 302 303 302 302 301 300 300 299 299 299 298 297 297 297 296 296 296 296 297 298 297 297 298 297 296 294 292 291 291 291 291 291 291 290 290 290 290 290 291 291 293 295 295 294 294 291 291 292 295 298 298 300 300 301 299 298 297 296 297 297 298 298 300 301 301 301 301 302 302 302 302 304 304 303
300 300 300 300 301 301 301 301 301 302 302 302 302 302 301 301 300 298 299 299 298 297 297 297 296 296 295 295 295 295 296 296 295 296 297 298 297 297 297 297 294 294 296 296 294 295 293 293 292 291 291 291 291 291 293 293 294 294 295 296 295 295 295 296 296 296 296 296 296 296 297 297 299 299 299 299 299 300 302 301 302 303 304 304 302
300 300 300 300 300 300 300 293 297 301 301 301 300 299 301 302 300 298 297 298 297 297 298 297 296 296 295 295 295 294 294 294 293 292 294 295 297 297 296 296 296 296 296 296 296 297 297 293 293 294 295 295 295 295 295 294 294 293 294 294 294 295 294 294 294 295 295 295 295 296 296 296 295 295 296 297 297 298 300 300 299 299 300 301 299
300 300 300 299 299 299 300 300 300 300 300 301 301 300 299 300 300 300 299 298 296 297 298 298 297 299 298 295 294 294 294 293 293 289 290 289 291 294 294 295 295 294 292 291 296 295 294 293 293 293 292 289 290 292 293 292 292 293 292 294 294 295 294 294 294 294 294 294 295 295 295 294 294 295 295 295 295 296 299 299 300 300 301 302 300
300 299 299 299 299 299 299 299 300 300 300 299 299 297 288 290 296 299 298 290 287 288 289 294 295 297 298 298 296 294 293 293 288 287 289 289 289 289 289 289 289 293 291 290 293 292 291 290 290 290 290 290 289 288 289 290 289 289 289 289 291 291 291 291 291 292 291 292 293 291 292 292 293 294 294 294 295 296 296 295 299 301 298 299 298
298 298 298 299 297 298 298 299 299 300 300 299 299 298 298 294 288 289 290 290 289 288 288 288 288 288 293 298 296 287 288 288 287 288 288 288 288 288 288 288 289 289 290 292 291 290 289 288 288 288 288 289 287 287 288 288 287 287 288 288 290 289 289 290 290 290 290 290 290 290 291 291 291 292 292 292 293 294 296 297 298 299 297 297 296
298 298 298 299 298 298 299 299 299 299 299 299 299 299 298 297 297 289 288 289 288 288 289 288 288 288 288 289 293 298 292 289 287 288 288 288 288 288 288 288 288 289 289 291 291 290 290 289 288 287 288 287 287 287 288 288 288 288 288 288 288 288 289 289 290 291 290 290 290 290 291 291 290 291 291 291 291 293 294 294 295 294 295 296 296
300 299 299 299 298 297 297 298 299 299 298 298 298 298 297 296 296 297 294 288 288 289 289 289 288 289 288 288 288 288 288 288 288 288 288 288 288 288 288 288 288 289 291 292 291 290 290 290 289 290 289 287 288 288 288 288 288 288 289 288 287 288 289 289 289 291 290 290 290 290 291 291 291 291 290 291 291 291 293 292 295 296 295 293 293
301 300 300 300 299 299 299 298 298 298 298 298 298 297 297 297 297 296 295 297 296 293 289 289 289 290 289 288 288 288 288 288 288 288 288 288 288 288 289 291 289 290 292 295 293 292 293 292 291 291 290 288 288 288 288 288 289 289 289 290 291 291 291 292 291 290 290 290 291 290 290 291 291 292 292 292 292 292 292 292 292 292 293 293 293
301 295 291 296 300 299 299 299 299 298 298 298 297 296 296 296 296 296 296 295 294 293 296 296 291 289 294 293 289 287 287 288 288 287 288 288 288 288 288 296 294 296 296 297 296 295 293 293 292 292 291 290 290 290 290 291 291 290 290 290 290 291 291 291 291 292 291 292 291 291 291 290 291 291 292 292 292 291 292 292 292 294 293 292 293
301 300 301 299 300 300 300 300 300 299 298 299 298 297 296 296 295 296 295 294 294 294 294 295 296 290 288 290 288 288 288 288 287 288 288 288 288 288 293 292 293 294 294 296 295 295 294 293 293 292 292 292 292 291 292 291 291 292 292 291 290 291 291 290 291 291 290 290 290 290 291 291 291 291 292 291 291 292 292 292 292 292 291 292 291
300 300 300 300 300 301 301 300 300 299 295 296 296 297 296 296 295 296 295 295 294 295 294 295 295 295 293 295 293 290 288 288 289 289 289 288 289 292 295 294 294 295 294 295 295 294 293 293 293 293 292 292 292 292 292 292 292 292 291 292 292 292 291 291 291 290 291 291 290 290 290 291 291 291 292 291 291 291 292 292 291 290 291 290 290
301 301 300 300 301 301 300 300 299 294 296 297 297 297 297 297 296 295 294 294 293 293 294 294 292 293 292 292 294 293 294 291 288 288 290 291 292 292 292 293 293 293 294 294 295 295 294 295 295 294 293 293 292 292 292 292 292 291 292 292 290 290 289 290 289 291 290 291 291 291 291 291 292 292 291 291 291 291 291 291 292 292 291 290 291
302 293 290 290 293 300 300 299 297 299 299 297 297 296 294 295 295 295 295 294 293 293 293 293 292 293 293 294 293 294 292 292 291 291 292 293 294 294 294 293 293 293 294 294 294 294 295 294 294 294 294 294 293 293 293 292 292 292 292 290 290 291 290 291 290 291 291 291 291 291 291 291 292 292 291 291 290 290 290 290 290 291 291 291 291
300 301 297 292 297 297 297 297 298 297 295 298 297 296 296 295 295 296 295 294 293 293 294 293 292 294 294 294 292 293 291 289 290 291 291 291 292 293 294 293 293 293 293 293 294 294 294 294 294 294 294 294 294 294 294 293 291 292 291 291 290 290 290 291 291 291 291 291 291 291 291 291 291 291 291 291 291 291 290 290 290 290 290 291 291
300 300 295 294 294 298 297 297 297 297 298 297 297 296 296 295 295 295 295 294 293 293 294 294 294 295 294 292 287 287 292 290 290 290 291 290 291 292 293 293 292 293 293 293 294 293 293 293 294 293 294 294 294 294 294 294 292 292 292 291 291 290 291 291 290 291 291 291 291 291 291 292 292 291 290 291 290 291 291 291 291 291 291 291 291
301 299 299 298 299 298 297 296 298 298 297 297 297 297 295 296 295 295 294 293 293 293 293 294 294 295 291 285 288 286 291 292 291 291 291 291 291 291 291 292 293 293 293 293 293 291 291 293 293 293 292 292 293 292 293 293 293 292 292 292 291 291 291 291 291 291 291 291 291 291 291 291 291 290 290 290 292 291 291 291 291 291 291 291 291
299 298 299 300 298 298 297 297 297 297 297 296 296 293 294 295 296 295 294 294 293 293 293 293 293 294 293 289 290 288 293 292 289 291 291 291 291 290 291 291 292 293 294 294 293 294 292 292 292 293 292 292 293 292 293 293 293 293 293 292 292 291 291 291 291 291 292 291 291 290 290 291 291 292 291 291 291 291 291 290 290 291 291 291 291
295 296 296 297 297 297 296 297 297 296 297 294 295 295 295 295 296 296 295 295 293 293 293 294 294 293 293 292 292 292 293 292 292 292 291 291 291 290 290 290 292 291 293 293 293 293 293 291 292 293 293 294 294 295 293 294 294 292 292 292 291 291 291 291 291 292 292 292 291 291 291 291 291 291 290 290 291 290 290 290 290 290 290 291 290
296 295 294 296 298 298 297 297 296 296 294 295 297 296 295 296 296 295 295 294 295 294 294 293 294 293 293 293 293 292 293 293 291 291 291 292 291 291 292 291 291 291 292 292 293 294 292 293 293 292 291 293 294 294 292 294 293 292 294 293 292 292 292 291 292 293 292 291 292 292 292 292 291 291 291 291 290 290 290 290 290 289 289 290 290
296 295 293 294 295 295 296 297 294 296 296 296 297 297 297 296 296 295 294 295 294 294 293 294 293 294 293 293 293 292 293 293 293 292 291 292 292 292 291 292 291 292 292 292 293 292 293 291 292 292 292 292 293 293 294 294 294 295 295 295 294 292 293 292 293 292 292 291 292 293 292 292 291 290 289 291 292 291 290 290 290 290 290 289 289
298 296 294 294 294 294 295 297 296 295 296 296 297 296 296 296 296 295 293 294 295 293 294 295 294 294 294 294 293 293 293 293 293 293 293 292 292 292 290 290 292 292 292 291 291 292 291 292 292 292 292 292 293 294 294 294 295 294 295 295 295 294 292 293 293 292 293 292 292 293 292 292 292 291 290 289 290 290 289 289 290 289 289 290 290
297 295 295 293 295 295 296 296 295 292 295 295 296 296 294 295 296 295 295 295 295 295 294 295 295 295 294 295 294 294 294 294 294 293 294 294 293 293 292 291 291 292 291 291 292 292 292 292 292 292 292 292 292 292 294 295 294 295 294 295 295 292 288 288 294 294 293 293 293 292 291 291 291 290 289 288 288 287 287 289 290 291 290 290 290
295 295 294 293 293 294 294 294 296 295 295 295 295 296 295 295 295 295 295 295 295 295 295 295 295 295 295 294 295 294 294 293 294 294 293 294 295 293 293 292 291 292 292 292 292 292 292 291 292 292 292 292 292 293 293 294 295 295 294 294 287 280 281 281 287 291 289 291 292 291 291 290 290 289 288 287 287 287 287 288 289 290 290 289 289
295 293 293 294 294 294 295 295 296 295 295 295 295 295 295 296 297 295 296 296 295 295 296 295 295 295 295 295 294 294 295 294 294 295 294 294 295 295 294 293 291 292 292 292 293 293 293 291 292 292 292 292 292 292 293 292 294 293 292 288 281 281 281 280 283 282 288 292 292 293 292 290 289 289 289 289 288 286 286 288 289 290 289 289 289
294 294 294 295 294 296 295 295 295 295 295 295 294 294 294 295 295 296 296 296 296 295 295 296 296 295 295 295 294 295 294 295 295 295 295 293 295 294 294 294 293 291 292 292 292 293 292 292 293 292 292 291 291 292 292 292 292 289 283 280 281 281 280 282 288 286 282 285 291 292 291 289 288 288 289 289 289 287 287 288 289 290 290 290 289
Wind_Speed
13 12 12 12 13 14 13 13 14 12 13 13 12 11 10 9 9 8 8 8 9 9 9 10 11 10 11 10 12 12 12 11 10 10 10 9 8 9 10 11 11 9 8 9 10 9 10 10 9 10 9 8 7 8 8 9 8 7 6 6 10 7 7 4 6 9 7 5 7 8 9 11 10 10 10 8 9 8 8 7 9 7 8 7 10
13 13 12 12 13 13 13 12 11 12 13 12 12 12 11 11 9 9 9 9 9 10 9 9 10 11 10 10 14 12 13 11 11 10 9 9 9 8 9 11 11 10 9 10 10 8 8 10 10 9 10 9 11 12 10 8 8 7 8 7 11 9 8 7 8 8 7 6 7 8 9 10 9 10 10 10 9 9 10 7 7 8 8 7 8
13 13 13 13 14 13 12 12 12 13 13 11 11 12 12 11 9 8 8 8 7 7 9 10 11 10 11 12 10 9 12 11 11 11 10 10 10 10 9 10 10 10 10 10 10 9 9 10 10 9 8 9 9 9 7 8 7 9 10 12 11 9 10 10 10 8 9 8 7 9 9 10 9 10 11 9 9 10 10 10 8 8 7 8 7
14 14 14 14 14 13 13 13 13 13 13 12 13 13 12 11 8 7 5 5 7 8 11 10 9 11 11 8 8 12 12 11 10 10 10 10 10 10 10 10 10 10 10 10 9 9 9 9 10 10 9 9 9 10 9 10 10 9 16 14 10 8 5 4 5 5 7 7 9 9 9 9 9 8 9 9 9 9 9 9 9 8 8 8 8
14 14 14 15 14 14 14 13 13 13 13 13 15 15 12 10 8 7 5 6 7 8 8 10 9 8 7 9 10 11 11 11 11 10 9 9 9 9 9 9 9 10 9 9 9 9 9 9 9 10 9 9 10 10 10 12 10 10 9 10 9 9 7 6 5 6 6 7 8 8 9 9 9 8 9 9 9 9 9 9 9 9 9 9 8
13 14 14 15 14 15 14 14 14 14 13 13 14 14 13 10 9 8 6 6 9 7 8 6 11 9 13 12 12 14 12 11 10 10 10 10 9 9 9 8 8 9 9 9 9 9 9 10 9 10 10 10 9 10 11 12 11 11 11 11 11 11 8 6 6 10 9 6 7 8 7 9 9 9 9 9 9 9 9 9 9 8 8 8 8
13 13 14 14 14 15 14 14 13 14 13 13 13 13 13 11 9 8 7 7 8 6 6 9 6 12 11 14 13 11 11 10 10 10 10 9 10 10 9 9 9 8 9 10 9 9 9 10 10 10 10 10 10 10 10 11 10 12 10 11 4 4 9 6 7 9 8 8 7 8 8 8 8 8 9 10 9 9 9 9 9 8 8 8 8
13 13 14 14 14 15 14 14 13 14 13 12 12 13 14 12 9 8 7 7 4 5 6 7 7 7 8 4 4 5 4 7 9 9 9 8 8 9 9 8 9 8 9 9 9 9 9 9 10 10 11 10 10 10 10 10 10 12 10 5 7 5 7 8 3 8 8 8 8 8 8 9 8 8 8 9 9 9 9 9 9 9 9 9 9
13 14 14 14 15 14 14 13 13 13 13 12 12 13 13 13 11 7 5 4 4 5 7 7 6 9 5 5 7 7 11 12 9 9 9 9 9 9 9 9 9 9 8 9 8 9 9 8 8 9 9 6 4 6 5 3 9 10 8 6 3 5 6 7 6 3 6 9 10 8 8 9 9 9 9 9 11 10 9 8 8 8 9 8 9
13 14 14 14 14 15 14 14 14 14 14 14 14 13 12 12 12 12 8 4 3 5 6 8 7 8 7 7 11 10 4 7 5 8 6 8 9 8 8 8 9 8 9 9 9 9 9 8 8 9 4 4 4 3 3 2 2 3 2 3 4 7 5 10 9 6 2 4 5 7 7 7 9 10 10 10 10 9 9 9 9 8 8 8 7
13 14 14 14 15 15 14 14 14 15 14 14 14 15 14 12 11 11 12 12 11 9 6 7 8 9 9 7 5 5 8 5 7 6 5 6 6 8 8 8 8 8 8 8 9 9 9 9 9 9 7 6 6 7 5 3 3 2 4 8 4 4 4 5 8 11 10 9 9 8 7 9 10 9 10 10 9 10 10 9 10 9 9 8 8
13 14 14 14 15 16 15 15 15 15 15 15 15 15 14 14 13 12 11 11 10 10 11 11 11 10 8 8 8 7 2 15 10 4 2 6 8 6 8 8 8 8 9 9 9 8 9 8 8 8 9 11 11 8 5 2 1 5 7 8 7 7 5 7 10 9 9 10 11 11 11 10 9 10 10 10 9 9 10 9 10 10 9 10 9
13 14 14 15 15 15 15 15 16 16 16 15 15 14 14 14 14 14 14 12 9 10 10 10 10 10 10 9 8 8 10 16 17 17 12 10 12 11 7 8 8 8 8 9 9 8 8 8 8 7 7 9 9 9 9 6 7 8 8 9 8 7 6 3 3 4 9 10 10 11 11 10 10 8 9 10 8 9 9 10 9 9 9 9 10
13 14 14 15 15 15 16 16 16 16 16 15 15 15 15 14 14 12 12 12 11 10 9 10 9 10 10 10 8 6 8 14 16 15 13 12 13 10 10 8 8 8 8 9 8 8 8 8 8 7 7 8 10 9 9 9 7 7 6 6 5 6 6 5 2 4 4 6 8 7 3 1 1 3 2 2 6 7 8 8 7 7 7 5 5
13 14 14 15 15 15 15 16 16 16 16 16 15 15 15 14 14 12 12 12 12 11 11 10 9 9 10 10 9 6 8 19 17 16 14 12 12 10 10 10 8 8 8 9 9 8 8 8 8 8 8 9 10 9 9 9 9 9 8 7 6 5 4 2 2 4 5 4 2 4 5 5 5 3 0 1 2 3 3 4 5 4 6 7 5
13 14 14 14 15 15 15 15 15 15 16 16 16 16 15 15 14 12 11 10 9 10 10 10 11 11 11 10 9 8 9 17 18 16 14 12 9 7 10 11 9 8 8 9 8 7 8 8 8 9 9 9 9 8 8 9 10 10 8 7 7 6 7 5 6 9 6 5 5 4 4 4 5 5 6 3 3 3 4 5 5 7 7 6 6
14 15 14 14 14 14 15 15 16 16 16 16 16 15 15 15 14 12 12 11 11 10 10 10 10 11 12 12 11 7 7 12 16 17 16 11 5 6 10 10 9 8 8 8 8 7 4 3 6 8 8 8 12 11 8 10 10 10 9 8 7 7 6 7 12 14 15 16 16 14 12 12 13 14 14 13 9 4 5 5 7 7 7 8 7
13 14 14 14 13 13 14 15 15 16 15 16 15 14 14 13 13 12 12 12 12 12 10 10 10 10 12 12 11 9 9 11 16 15 16 14 8 7 9 10 9 7 6 5 6 5 6 11 10 2 8 7 12 11 11 10 9 10 10 11 10 9 8 7 8 9 14 15 15 14 13 14 15 16 16 17 16 11 3 5 4 4 5 2 6
13 14 14 13 13 12 13 14 14 14 15 15 14 15 14 13 12 12 11 11 11 11 11 11 11 11 11 11 15 13 10 10 16 16 14 14 10 7 7 7 6 5 6 5 4 4 4 8 13 10 2 12 13 12 8 5 8 9 11 10 10 10 9 10 10 11 10 10 9 9 9 9 9 9 10 16 15 12 8 7 5 4 5 4 4
13 12 12 13 12 13 13 14 13 13 14 14 13 13 13 13 13 12 12 11 11 11 11 11 12 11 11 11 11 12 13 11 14 18 15 13 12 7 8 6 3 3 3 4 5 5 5 5 9 12 13 12 11 7 4 8 6 10 10 9 11 11 10 9 8 9 9 9 9 8 9 8 9 10 9 9 8 9 8 7 6 3 4 2 2
13 13 12 13 13 13 13 14 14 14 13 12 12 12 11 12 13 13 12 11 11 11 12 11 11 11 11 12 12 13 13 14 13 18 17 15 13 8 4 6 5 3 5 4 3 4 5 6 6 9 12 10 9 10 9 10 4 9 8 8 8 12 11 9 9 9 10 9 8 8 8 8 9 8 7 6 6 6 6 7 7 7 6 3 1
11 12 13 13 13 13 13 14 13 12 13 13 12 12 11 12 11 12 11 12 13 12 12 12 11 11 11 12 13 13 15 20 14 16 19 17 16 13 6 5 5 7 9 9 9 8 7 6 5 8 14 12 12 12 13 14 15 10 12 17 17 14 10 10 9 8 8 8 7 7 7 7 7 7 6 5 5 5 5 5 5 6 6 6 6
11 12 12 13 12 13 12 13 12 11 12 13 14 13 12 12 12 12 12 12 13 13 13 12 12 12 11 11 11 13 13 15 19 16 19 18 18 18 15 9 11 10 9 9 8 7 7 7 6 12 17 15 14 14 14 16 14 11 15 14 12 11 10 8 7 7 7 7 7 7 7 7 7 6 6 5 5 5 5 5 5 5 6 6 7
11 12 11 12 12 11 12 12 12 12 13 13 13 14 14 13 12 12 12 12 12 13 12 11 11 11 12 12 12 12 12 12 15 18 17 20 21 21 19 16 14 12 10 9 8 8 8 8 8 14 18 19 19 19 18 15 11 13 13 12 10 8 8 7 7 7 7 7 7 7 7 6 6 6 6 6 5 5 5 5 6 6 7 6 7
11 12 12 12 12 11 11 11 12 12 11 12 13 13 14 14 13 13 12 13 13 13 13 13 12 11 10 11 11 11 12 12 12 14 16 17 20 21 20 16 15 20 16 10 10 9 10 13 14 14 15 17 18 17 16 15 16 14 14 12 8 6 6 6 7 7 8 7 7 7 7 7 7 6 6 5 5 5 6 6 6 7 7 7 8
11 12 12 11 12 12 12 11 11 12 12 11 12 12 13 13 12 13 12 12 13 12 13 13 12 12 10 9 10 10 11 11 11 12 11 13 13 16 15 15 18 21 19 15 17 15 14 17 18 16 15 13 12 10 10 11 15 16 16 14 8 7 6 6 6 7 8 7 7 7 7 6 7 6 5 4 4 5 4 5 4 4 4 5 6
11 11 11 11 11 11 11 10 9 10 11 11 12 12 12 12 12 12 11 12 12 12 12 12 12 12 11 10 9 10 10 11 11 11 10 9 10 9 10 11 13 13 11 10 10 10 12 12 12 13 12 16 16 14 13 12 12 11 9 9 8 8 7 7 7 7 7 7 7 7 7 6 6 5 5 5 5 5 4 2 3 3 3 4 5
10 11 11 11 10 11 10 9 9 9 9 10 11 10 10 11 11 11 11 11 12 12 12 12 11 11 11 10 9 10 11 11 11 11 10 8 8 8 8 9 9 7 8 8 8 7 8 10 12 10 10 10 10 11 11 11 10 8 8 7 7 7 8 9 9 8 7 7 7 7 6 6 6 6 5 5 5 5 4 3 3 3 2 3 3
10 10 10 10 10 10 10 10 9 9 9 8 7 8 8 9 10 9 9 8 7 9 11 11 10 9 8 9 9 8 9 9 8 9 7 11 10 8 8 8 8 8 9 9 6 8 9 10 9 9 9 8 8 8 8 8 8 8 9 8 7 7 8 7 7 7 6 6 7 7 6 6 6 6 5 5 5 4 3 3 2 3 3 2 3
9 9 9 10 11 10 10 10 10 9 9 9 6 6 6 8 7 8 7 5 5 8 7 7 7 7 7 6 4 5 5 6 10 11 11 11 11 11 10 11 10 9 12 14 10 8 8 8 8 8 7 7 7 7 7 7 7 7 8 8 8 7 7 7 6 6 5 6 6 6 6 5 6 5 5 4 4 4 4 4 3 3 3 4 4
8 8 9 9 9 9 10 10 10 9 9 9 9 5 6 4 6 7 9 7 7 6 8 7 9 11 8 7 4 8 6 8 10 9 9 9 8 9 10 9 9 8 9 6 7 6 5 6 5 6 6 6 6 6 5 5 4 5 6 6 6 6 5 6 6 4 4 5 5 5 4 4 5 5 5 4 4 3 3 3 3 4 4 4 4
9 8 8 8 8 9 9 10 10 10 9 9 9 9 9 5 4 3 4 10 9 9 9 8 9 10 11 9 8 6 8 9 10 9 8 8 8 8 8 8 8 9 8 6 6 5 4 4 4 4 5 5 4 4 5 5 5 5 4 4 4 4 5 5 4 5 3 4 4 3 3 3 3 3 3 2 2 2 2 2 3 2 3 4 3
9 9 9 8 8 8 9 9 10 10 10 10 9 10 9 9 10 5 4 4 8 9 11 8 8 10 9 9 8 5 5 6 8 8 8 7 6 6 7 8 8 7 3 4 4 4 4 5 5 4 4 4 5 4 5 6 5 5 5 5 4 5 5 4 3 5 4 4 3 3 3 3 3 3 3 2 2 2 2 1 2 3 3 3 2
7 8 9 8 7 7 8 8 8 9 9 9 10 10 10 10 9 9 9 6 2 4 8 11 8 7 8 7 7 7 7 7 7 7 7 8 7 7 5 4 6 9 6 4 3 3 4 4 4 4 4 5 5 4 5 4 5 5 5 6 6 6 6 4 4 4 3 3 3 3 3 2 2 3 3 2 2 2 2 2 2 2 2 2 2
7 6 5 5 7 7 7 7 7 8 9 10 9 9 9 10 9 9 9 8 9 9 8 4 8 7 6 7 6 6 6 7 6 6 6 6 6 7 7 2 1 3 3 3 4 4 4 4 4 4 4 4 4 4 5 5 5 5 5 5 5 5 4 3 3 4 3 3 3 3 3 3 2 2 2 2 3 3 3 2 2 3 2 2 2
6 7 7 8 7 6 7 6 7 7 8 8 9 10 9 10 10 10 9 8 9 9 7 9 7 5 5 6 3 1 3 4 4 6 6 7 7 7 3 2 1 2 3 3 3 4 4 4 4 4 4 5 5 5 5 6 6 6 6 5 4 4 4 3 3 3 3 3 3 3 3 3 3 4 4 4 3 3 3 3 3 2 2 2 2
6 7 7 7 7 6 6 6 5 5 4 5 9 9 10 10 10 10 9 9 9 8 8 9 10 8 3 10 12 5 2 3 1 2 4 5 7 4 3 3 2 2 3 3 4 4 4 4 4 4 5 5 5 5 6 6 6 6 5 5 5 4 3 3 3 4 4 4 3 3 3 3 2 2 3 3 3 3 2 3 3 3 3 2 4
6 6 8 7 8 6 5 5 4 1 4 7 8 8 9 9 10 10 9 9 8 7 8 9 9 9 11 11 13 11 10 3 6 7 4 5 4 4 3 4 3 3 3 3 3 4 4 4 4 5 5 6 6 6 6 5 5 5 3 5 3 3 2 3 3 3 4 4 4 4 3 3 3 3 3 3 3 3 2 2 1 2 2 1 2
6 7 2 7 7 6 5 5 6 5 6 7 8 9 8 9 10 10 10 9 7 7 9 8 8 9 11 11 10 10 8 7 6 6 6 4 4 4 4 4 4 4 3 3 3 3 3 4 5 5 6 7 7 7 6 6 6 4 5 4 5 4 3 4 3 3 3 4 3 3 3 3 2 2 3 3 3 2 2 2 2 2 2 2 3
5 5 4 6 7 5 5 5 5 4 5 7 7 8 8 9 9 10 10 9 6 6 6 8 9 9 10 9 8 8 8 6 6 5 5 6 5 5 5 4 4 3 3 3 3 4 3 3 5 6 7 7 7 6 6 6 4 3 3 3 3 3 3 3 3 3 3 3 3 3 3 3 2 2 2 2 2 2 2 2 2 2 2 2 1
6 5 6 6 5 6 5 5 5 6 7 6 7 8 8 8 8 9 8 7 6 6 7 8 8 8 7 5 7 7 7 7 7 5 5 5 4 5 5 5 3 4 3 3 3 3 3 4 5 6 6 5 6 6 6 5 4 3 3 3 3 3 3 3 3 3 3 2 2 2 2 1 2 2 3 2 1 1 1 1 1 1 1 1 1
5 5 5 6 6 6 6 6 5 5 5 6 6 7 7 6 6 7 7 8 8 7 5 7 8 7 6 3 5 8 5 7 6 6 6 5 5 5 4 5 4 4 3 3 3 2 3 5 4 3 3 3 3 3 3 3 3 3 3 3 3 3 3 3 3 2 2 2 2 2 2 2 2 2 2 2 2 2 2 2 2 2 1 1 1
5 5 5 5 5 5 6 6 5 5 6 7 7 5 5 6 6 6 6 8 8 7 4 5 7 7 4 3 4 8 5 6 6 6 6 5 5 4 4 3 3 3 2 3 3 2 2 2 3 3 3 3 4 3 3 3 3 3 3 3 2 2 3 3 3 2 2 2 2 2 1 1 1 1 1 1 2 2 2 2 2 2 2 1 1
5 5 5 5 5 5 5 5 6 6 6 5 4 4 6 6 6 7 7 7 5 5 4 4 6 5 4 1 0 5 6 6 7 6 6 6 5 3 3 3 3 2 3 2 1 1 3 3 3 2 3 2 3 3 2 2 1 1 2 2 3 2 2 2 2 2 2 2 2 2 1 2 1 1 1 1 1 1 2 2 2 2 2 2 2
5 5 5 5 5 5 5 6 6 6 6 5 5 6 5 5 5 6 6 6 7 7 5 3 5 4 6 5 5 5 6 6 6 6 4 5 3 3 3 4 3 3 2 2 3 4 2 2 2 2 3 2 2 2 2 1 1 0 1 2 2 2 2 2 1 1 1 0 1 1 1 1 1 1 0 1 1 0 1 0 1 1 1 2 1
5 5 5 5 5 5 5 5 6 6 6 5 6 6 6 5 5 5 6 6 7 6 5 5 3 3 3 3 4 4 4 5 5 5 5 3 3 2 2 2 2 2 2 2 2 2 2 2 2 2 2 2 2 2 2 1 1 2 1 1 0 2 2 2 1 0 0 2 2 1 1 1 1 1 3 3 1 0 0 0 0 1 1 2 2
4 5 5 5 5 5 4 5 6 7 6 6 6 6 6 6 6 6 5 4 5 6 6 6 5 2 2 4 2 3 4 3 4 3 3 3 3 3 2 2 1 1 1 0 0 0 1 1 1 1 1 1 1 0 0 1 1 1 2 3 3 3 2 2 1 0 0 0 2 3 2 2 0 1 3 1 2 0 1 1 1 1 1 1 2
5 4 4 4 5 5 4 5 6 6 5 5 5 6 5 6 5 5 6 6 5 5 6 5 4 3 4 3 3 3 3 2 3 2 2 2 2 1 1 1 1 1 1 1 1 1 1 1 1 1 1 1 1 1 1 1 1 1 2 3 3 4 5 6 0 1 0 0 0 1 1 1 2 2 2 1 2 2 2 0 1 1 1 1 2
4 4 4 4 5 5 5 5 6 6 6 6 5 5 6 6 6 6 5 5 5 5 5 5 4 4 4 2 2 2 2 3 3 3 2 2 2 1 1 1 0 0 1 2 2 1 1 0 0 1 1 1 1 1 1 1 1 1 2 2 5 5 2 4 5 3 5 2 0 0 1 0 0 2 1 1 1 2 1 0 0 0 1 1 2
4 4 4 4 4 4 5 5 6 6 6 6 6 6 6 6 5 5 5 5 5 5 5 5 5 4 4 4 3 2 1 2 3 3 4 2 2 1 0 2 2 2 1 1 2 2 2 1 1 2 1 1 1 1 2 1 2 0 3 5 5 3 2 2 3 4 5 2 2 1 1 2 2 2 2 1 0 0 1 2 1 0 2 1 1
3 3 3 4 4 5 5 6 6 6 6 6 7 7 6 6 6 6 5 5 5 5 5 5 5 5 4 4 3 2 2 2 3 4 3 3 3 1 0 1 2 2 1 0 0 0 1 1 1 1 1 1 1 1 1 1 1 3 5 5 3 2 2 3 2 1 3 6 3 2 0 1 2 2 2 1 0 1 1 2 0 2 1 2 2
Wind_Direction
355 352 346 342 339 337 333 329 327 325 322 316 301 292 285 283 276 270 255 242 242 235 230 230 223 216 210 210 212 202 201 199 191 197 201 205 209 216 215 213 214 212 215 216 218 219 222 219 216 212 212 195 212 219 214 208 205 218 237 243 236 218 212 149 221 161 185 188 184 186 169 171 177 177 175 168 151 182 206 184 157 187 190 190 175
358 351 348 341 338 335 333 331 328 327 325 320 315 302 295 286 279 263 258 249 238 234 229 230 226 212 213 209 214 202 208 194 194 201 200 200 200 203 209 211 211 210 209 215 211 216 214 221 217 209 211 202 217 206 200 205 203 210 234 240 234 206 213 195 208 154 172 180 187 185 166 180 182 185 181 177 169 177 190 188 178 191 194 201 185
358 355 350 346 340 337 337 336 333 332 330 326 319 317 301 288 284 275 262 254 243 238 228 231 225 209 205 214 213 227 212 196 196 201 198 196 197 201 207 208 206 208 209 210 211 208 212 219 219 209 203 211 209 227 182 199 187 196 218 226 224 214 206 206 224 177 170 188 182 184 173 183 200 181 189 178 181 181 189 191 188 191 200 197 208
360 356 352 348 345 342 341 339 338 338 335 330 326 313 305 295 288 284 288 276 230 227 243 239 229 220 215 211 223 205 197 197 198 200 199 198 200 200 206 207 207 207 209 208 206 207 212 216 220 213 204 209 212 213 191 211 207 202 211 210 204 209 203 233 195 251 195 174 184 190 180 177 201 189 187 182 180 188 194 191 193 194 195 198 206
359 359 355 352 351 348 344 344 342 339 334 330 326 321 309 302 294 291 273 276 277 252 237 239 240 219 200 206 218 229 204 195 196 197 196 197 199 204 205 207 207 210 208 209 207 209 208 215 217 215 209 211 211 215 213 212 205 217 212 223 189 198 195 199 206 254 234 180 184 199 172 183 189 198 185 185 182 193 197 199 197 196 197 203 197
360 0 -0 357 355 352 349 346 344 341 336 331 326 320 314 303 298 294 273 262 263 262 247 237 230 200 210 206 207 213 204 194 194 194 191 190 198 201 203 203 206 208 208 210 207 211 212 213 217 216 211 212 216 213 213 210 219 222 222 222 212 186 168 168 213 204 224 204 175 189 179 182 183 191 190 193 191 194 194 201 203 200 198 198 202
1 2 3 4 359 357 352 349 345 344 342 333 327 325 324 323 304 296 301 280 271 269 259 243 214 239 212 204 200 205 198 192 190 188 192 192 195 198 197 200 201 206 208 208 207 208 212 214 213 212 215 213 217 214 212 216 215 224 222 226 232 214 134 169 208 215 217 212 188 181 188 190 187 185 192 197 203 200 195 196 202 200 203 201 204
2 5 6 5 4 360 356 352 349 348 345 340 337 335 331 328 318 305 296 292 306 314 271 259 255 243 245 46 342 288 278 205 191 187 188 189 193 196 197 195 201 204 211 210 203 205 205 212 216 213 215 215 216 216 217 216 220 221 219 253 214 162 148 163 192 229 208 222 214 185 196 188 189 201 189 190 205 205 206 200 202 202 200 203 212
5 8 8 7 5 2 359 357 352 353 353 349 350 348 344 342 329 303 287 305 309 306 327 318 288 269 236 183 227 222 211 217 191 187 185 185 192 202 200 196 201 202 208 210 207 207 202 207 215 219 220 237 256 314 291 262 225 220 220 213 289 270 168 143 143 244 237 212 213 204 196 191 195 194 193 190 204 207 202 211 214 207 203 198 205
11 10 11 10 7 5 3 2 359 359 356 356 355 350 350 346 352 339 338 348 321 323 336 311 304 271 268 214 208 215 188 235 153 176 205 186 192 199 197 199 200 200 205 205 207 209 203 202 205 211 209 173 150 169 146 226 301 320 249 199 181 251 191 154 175 168 213 233 233 217 205 215 203 196 198 201 208 214 210 206 217 215 215 205 198
14 14 13 11 10 8 7 5 5 6 4 1 358 1 357 357 354 356 352 358 0 351 332 333 332 298 300 292 253 227 218 161 129 183 182 262 234 194 195 199 200 200 199 204 208 205 207 202 200 177 178 183 180 175 206 213 216 235 60 59 66 193 154 175 155 169 206 224 221 215 199 217 223 205 205 206 207 212 215 204 213 215 213 210 206
17 17 15 12 11 10 10 9 9 10 10 7 7 3 1 2 3 3 4 2 357 2 10 359 358 342 335 304 315 297 328 31 15 44 263 270 266 236 199 203 199 204 206 203 208 206 205 202 199 196 205 207 211 194 192 179 106 95 89 88 86 72 102 190 177 193 210 213 211 213 210 212 218 217 213 211 205 209 218 212 213 217 209 213 222
20 19 16 14 13 11 12 13 13 13 13 12 10 10 8 5 5 5 6 5 1 7 10 8 358 353 344 347 353 3 29 27 7 349 337 315 300 297 233 208 210 207 208 208 208 203 200 198 204 196 188 176 205 195 193 156 97 107 119 106 76 70 75 68 357 212 209 223 221 216 215 215 220 219 222 218 204 208 210 214 209 214 213 218 224
21 19 18 17 15 13 13 13 15 15 16 15 14 14 13 10 6 6 5 6 11 12 9 11 4 357 354 350 356 11 39 17 8 352 334 320 297 296 264 233 219 215 216 210 204 201 195 192 200 196 179 175 200 197 187 179 170 152 165 193 150 119 105 100 246 261 301 241 222 211 187 2 169 7 311 182 179 203 205 212 204 208 213 216 72
23 23 20 19 17 16 14 15 15 16 16 17 17 16 16 13 11 8 11 11 11 10 7 6 8 8 8 0 358 6 51 18 4 352 341 318 297 285 270 256 231 226 221 214 207 201 194 197 198 195 193 195 200 196 188 179 180 176 178 162 131 118 85 85 229 231 232 287 358 39 29 32 54 86 149 166 206 227 225 214 186 173 124 109 122
22 25 22 20 19 17 17 16 15 14 14 16 17 17 16 17 15 12 10 13 12 9 12 9 6 9 9 13 12 2 12 17 358 353 345 324 299 265 254 251 239 233 225 216 211 201 201 198 201 195 187 198 154 177 205 181 177 171 156 126 107 86 65 35 14 37 58 79 102 123 90 69 61 58 24 12 147 131 116 113 121 137 157 177 166
23 24 24 21 19 19 17 17 17 16 15 16 15 16 15 16 18 17 18 17 13 11 7 7 6 8 11 12 5 3 0 7 1 356 348 342 283 254 251 251 247 233 228 220 210 196 185 215 212 200 182 184 135 160 149 167 163 151 137 127 115 105 94 72 58 72 82 86 90 91 90 78 68 57 43 26 16 322 189 178 184 185 191 190 162
25 24 25 23 21 20 18 17 16 15 16 16 15 15 14 17 19 18 21 20 20 20 14 14 12 12 10 13 8 357 359 4 3 1 358 349 329 283 271 250 240 222 202 211 218 192 63 35 0 248 188 131 140 144 161 178 164 152 143 135 129 119 115 112 103 85 88 89 87 86 83 82 69 59 48 33 20 4 253 173 117 202 187 197 170
25 25 25 25 22 20 17 16 15 13 15 16 16 16 16 15 15 20 23 24 26 24 24 24 20 18 14 15 16 13 2 1 3 354 6 358 350 310 293 262 224 187 172 159 151 142 114 50 28 2 79 124 141 152 167 241 166 156 150 142 133 130 131 136 125 121 120 116 107 96 73 67 74 76 60 50 29 19 35 53 47 66 86 81 94
23 22 23 23 23 22 22 22 19 17 15 18 17 17 16 15 14 16 19 22 24 24 25 25 27 24 21 18 19 18 10 3 6 359 360 8 4 354 324 305 232 187 179 156 141 110 93 79 45 35 78 109 117 97 49 347 190 158 158 146 139 131 143 136 117 118 112 106 100 92 91 83 73 61 56 52 45 33 24 26 27 69 116 120 145
23 23 22 23 22 22 23 25 23 24 24 20 20 18 16 15 14 14 16 20 21 23 24 24 23 25 24 25 23 23 21 9 5 6 4 10 17 25 33 10 356 48 58 43 59 92 84 66 71 62 61 61 68 68 49 27 22 160 158 151 131 125 128 117 97 102 106 105 103 98 89 80 73 66 57 46 44 38 38 32 31 24 23 44 110
24 23 20 23 23 23 23 26 25 25 23 25 26 24 20 21 17 14 11 12 15 18 21 22 24 23 21 22 23 21 25 26 14 12 11 16 21 24 39 43 34 63 61 51 32 29 43 61 61 74 79 71 68 69 62 59 54 68 76 89 100 115 123 121 129 131 129 127 121 114 109 97 95 93 90 80 66 71 69 59 39 37 40 41 27
19 20 19 19 21 24 25 25 29 28 27 26 27 25 23 24 23 22 20 17 17 15 15 15 20 22 23 23 21 22 22 28 22 23 21 24 30 35 31 30 62 69 76 64 55 47 43 56 58 73 73 67 66 64 69 72 72 77 84 86 95 115 130 132 133 135 126 119 113 108 108 107 106 105 103 100 86 76 77 66 73 86 85 66 50
19 20 20 21 19 24 25 30 28 31 30 30 32 30 27 23 26 22 23 23 21 21 18 14 13 17 18 18 22 22 23 27 27 25 32 34 38 39 39 37 59 73 67 64 56 55 54 57 57 72 82 78 71 67 55 52 69 73 76 78 80 88 102 104 103 95 92 91 88 81 74 70 77 75 69 65 66 68 72 77 82 77 75 82 77
21 19 21 23 21 25 24 29 33 27 29 30 28 30 30 27 26 24 21 22 24 22 21 20 20 18 16 13 14 19 20 20 27 21 21 36 44 46 45 39 50 71 73 62 63 59 62 63 56 58 70 76 76 71 66 54 48 45 47 47 59 86 91 102 107 106 95 88 86 80 73 65 63 60 58 69 77 84 85 78 72 72 80 82 78
22 20 22 24 23 24 25 22 33 34 30 30 31 29 29 31 27 26 23 22 21 22 21 20 21 21 19 17 11 12 17 18 17 19 19 26 38 46 50 46 53 64 74 76 73 65 59 62 57 50 47 53 63 61 64 59 51 42 35 33 38 38 44 71 85 94 96 97 93 91 86 82 72 66 63 64 65 62 76 100 108 111 120 118 114
22 24 24 23 24 23 28 13 14 35 30 32 31 27 26 31 32 23 20 16 16 18 20 19 19 18 20 21 20 15 14 17 15 16 15 28 35 32 41 42 42 50 59 62 63 66 56 53 63 62 60 56 58 60 58 50 47 42 40 35 41 42 33 37 54 72 84 90 92 90 89 85 83 75 62 65 70 64 49 76 110 114 131 124 121
20 25 24 23 21 18 24 19 13 27 32 36 33 27 24 26 35 34 18 15 14 14 15 19 16 17 18 18 24 27 27 21 18 14 13 14 27 31 35 39 37 30 42 43 46 40 55 55 49 46 48 48 47 49 52 55 54 55 52 46 46 50 56 57 57 60 65 75 83 85 77 73 73 72 68 60 61 57 47 57 92 102 109 137 135
28 28 29 22 21 22 21 24 24 22 25 31 56 47 34 29 34 44 42 25 16 10 17 17 8 2 16 22 16 30 30 25 5 332 12 36 33 24 22 27 33 41 40 43 50 41 41 45 47 47 43 46 50 55 56 54 50 47 46 42 42 39 36 28 44 44 49 64 70 74 75 75 74 71 73 70 56 46 27 87 69 120 149 152 124
27 31 29 27 20 21 23 25 23 23 22 21 53 100 20 24 31 40 58 63 35 36 29 29 1 346 351 36 60 20 13 342 335 346 16 25 28 32 32 30 31 40 43 45 52 54 45 48 41 44 45 47 46 43 39 33 39 40 41 37 40 40 40 46 48 45 41 55 62 62 59 63 67 67 73 78 77 68 42 29 71 68 83 83 88
26 26 27 31 22 11 26 23 23 23 21 19 17 50 130 88 36 78 101 91 78 65 51 52 38 24 8 357 79 125 53 13 2 2 2 3 22 35 36 36 39 42 42 48 48 52 53 58 54 50 51 53 61 56 52 56 53 59 56 48 38 39 40 45 40 45 50 56 59 61 61 61 65 64 69 62 58 48 50 54 71 80 84 84 87
25 23 25 22 30 22 21 25 23 24 23 19 18 14 10 39 135 183 132 110 99 78 68 57 47 41 30 24 5 27 25 14 1 359 2 9 13 29 38 37 34 42 47 57 73 70 67 68 62 60 57 61 56 53 57 63 62 62 62 66 52 41 51 59 44 62 63 66 71 75 77 77 83 85 82 83 80 77 70 66 72 72 82 80 80
29 27 20 11 21 25 21 23 21 23 21 18 17 13 14 7 5 24 154 130 92 91 90 76 64 52 42 34 37 36 7 359 10 13 9 8 17 21 29 30 33 8 21 70 74 73 70 68 70 67 63 67 64 66 66 66 68 63 66 67 70 67 67 68 51 65 61 68 80 82 82 89 94 97 98 102 100 99 96 93 96 102 107 110 108
36 31 15 2 14 18 19 18 18 19 18 18 17 13 14 8 5 1 1 10 80 116 93 80 77 95 77 48 24 19 16 14 13 20 21 13 4 359 14 52 56 45 35 71 79 83 86 82 79 76 70 71 76 83 85 81 81 83 83 86 91 94 97 92 75 77 85 89 92 92 96 100 108 109 110 105 104 100 92 81 82 90 83 84 78
20 117 157 340 9 11 12 13 14 11 15 13 16 15 9 10 3 3 4 4 1 0 2 42 84 55 44 48 38 19 17 6 7 5 6 0 347 340 312 273 52 98 79 69 74 84 87 87 88 91 101 104 108 105 108 113 110 108 104 106 109 107 103 92 92 92 100 103 98 95 93 98 94 94 94 102 103 99 93 89 82 81 85 77 75
14 8 9 11 360 2 360 7 6 12 10 9 9 17 9 12 4 5 7 9 3 359 2 7 16 121 129 104 122 99 21 9 355 19 18 6 350 325 329 20 40 74 99 87 80 70 68 74 86 93 101 110 112 111 113 113 117 115 115 112 114 115 110 104 97 93 91 93 94 102 104 94 96 102 106 103 92 81 77 78 81 71 61 70 62
358 5 354 357 341 344 345 354 15 21 320 346 7 11 13 12 10 10 10 12 6 3 2 10 358 9 318 5 8 341 219 189 156 59 67 38 358 350 18 23 53 70 82 79 86 90 86 87 91 101 106 109 112 115 116 113 108 103 99 106 105 109 106 105 106 122 118 109 99 89 91 93 98 108 106 100 98 100 100 99 87 71 62 335 288
353 11 3 356 334 322 336 341 3 267 306 3 5 10 9 14 12 12 15 15 12 5 7 6 9 5 5 1 359 350 339 326 200 230 191 73 37 38 34 38 48 73 76 75 74 77 80 88 100 110 116 116 117 120 115 107 105 110 111 104 100 88 102 98 80 101 111 113 109 106 104 99 95 92 86 82 83 86 75 59 82 115 115 53 41
355 116 167 307 292 327 328 339 341 350 348 355 8 13 11 7 8 11 8 9 9 8 3 10 8 10 11 5 0 356 360 14 6 7 360 12 31 36 48 50 59 58 67 72 66 61 66 83 107 117 120 121 121 123 124 124 120 115 115 117 125 136 149 121 117 111 107 101 101 102 100 98 90 85 94 97 92 84 80 70 59 44 56 63 57
1 4 18 327 346 355 327 343 339 351 354 345 2 7 2 0 4 2 8 8 11 4 8 5 9 17 17 16 8 5 21 13 15 8 12 11 15 30 47 52 51 68 71 70 53 49 56 102 120 122 125 125 126 124 126 127 125 122 129 132 124 114 112 116 116 112 106 100 96 99 101 103 96 88 80 83 87 89 95 90 79 59 38 40 70
353 359 357 14 339 331 3 352 7 5 357 353 350 352 6 4 359 5 9 11 10 6 9 8 12 26 44 20 333 325 13 25 19 18 20 23 20 32 40 49 54 55 49 55 59 49 83 118 123 124 126 125 124 126 128 129 134 137 118 117 116 111 108 101 102 102 104 108 104 104 100 88 100 102 102 96 116 112 82 73 67 67 91 82 298
342 340 351 352 351 0 360 6 358 350 335 347 349 351 0 6 1 3 4 6 12 8 9 6 13 29 81 29 337 301 352 41 27 31 28 23 27 26 23 21 25 40 58 70 57 64 102 115 118 116 115 118 123 124 127 132 136 136 142 129 124 134 135 130 115 110 127 109 100 76 63 66 77 85 59 350 72 63 55 42 57 63 50 81 83
332 329 339 332 336 349 343 345 340 343 349 348 357 355 345 348 357 354 355 9 8 10 3 4 11 16 59 125 302 286 22 39 49 39 39 36 34 16 10 355 336 317 29 61 355 55 111 111 114 124 126 128 129 135 138 138 142 141 137 137 132 123 124 119 131 146 110 103 95 87 133 169 168 98 69 72 57 57 52 43 31 31 72 35 30
332 328 329 318 326 336 336 340 344 342 348 2 325 322 335 342 355 356 352 8 5 7 9 2 7 7 11 39 285 15 29 26 33 40 47 38 36 39 33 26 27 45 67 46 23 93 129 135 129 120 118 106 108 107 108 108 121 128 130 140 140 146 146 140 139 140 136 114 119 150 110 52 37 116 100 47 47 87 82 44 33 29 13 68 44
338 332 334 324 333 327 334 334 354 336 343 322 334 345 346 351 356 357 353 353 354 1 13 8 2 5 12 15 21 23 23 34 39 41 46 59 66 60 55 53 49 43 45 66 76 80 109 125 133 132 131 131 124 123 110 95 75 116 147 151 150 159 135 121 107 82 59 8 135 87 135 136 105 65 118 146 148 258 96 90 69 39 58 35 69
335 328 334 329 325 329 321 335 335 332 342 340 337 340 351 356 0 359 357 348 347 351 357 3 13 7 14 19 35 35 26 24 41 46 42 46 59 76 87 90 84 77 71 77 79 69 69 84 112 127 131 124 125 120 124 133 131 117 145 133 69 90 102 114 115 148 179 318 329 123 125 162 132 48 5 322 0 43 27 350 67 22 62 101 68
323 326 325 326 331 319 327 323 331 345 335 339 336 340 345 1 359 351 351 355 337 332 347 357 4 1 8 17 23 34 36 35 31 31 50 57 53 62 93 113 136 130 139 102 38 102 116 87 92 96 108 127 115 144 166 133 137 136 179 160 148 157 148 129 130 161 115 1 322 336 2 326 76 147 168 260 310 134 243 232 111 122 3 61 89
331 326 328 324 319 323 328 326 332 313 325 336 343 337 341 338 347 350 349 348 343 342 353 355 1 2 2 12 26 22 24 31 41 22 22 31 57 74 103 121 117 119 103 103 113 97 107 105 78 90 106 116 183 177 210 190 195 132 165 174 92 52 25 343 284 160 116 60 248 262 241 283 16 358 357 345 314 324 282 215 216 171 113 64 53
338 339 333 338 332 318 332 330 327 325 334 332 332 327 342 338 343 348 346 348 346 347 354 351 1 357 355 351 350 25 22 3 358 357 6 7 13 58 140 180 134 112 164 162 164 152 173 161 221 213 201 203 183 248 244 259 273 180 190 89 77 72 41 347 326 26 350 302 225 203 236 231 278 313 296 306 320 286 270 297 315 96 139 116 71
358 349 340 336 328 337 333 329 332 331 334 333 334 329 331 328 332 342 345 340 339 344 354 358 351 355 353 347 328 326 326 343 346 339 335 345 356 343 135 159 188 205 223 176 188 164 205 173 208 250 240 266 279 286 268 240 244 113 75 73 84 78 33 358 302 327 307 285 296 343 9 356 332 318 324 312 270 270 234 189 187 257 69 49 79
9 341 348 341 335 329 332 338 334 328 325 333 325 324 326 326 330 330 333 335 336 345 347 348 350 351 354 347 334 304 291 306 333 344 355 344 348 347 328 172 178 212 246 20 284 194 201 248 226 191 234 249 267 258 254 212 92 62 64 74 67 53 34 328 326 47 321 304 282 242 225 26 347 331 318 333 292 170 17 2 221 265 225 101 65